Cloud_Cover
0 0 0 0 0 0 0 0 0 0 0 1 2 0 1 2 4 4 9 27 20 100 100 48 68 64 69 10 17 5 5 5 5 5 5 13 15 39
0 0 1 0 0 0 0 4 7 1 0 0 2 5 2 0 0 29 33 8 100 99 75 48 85 96 6 7 9 62 43 5 5 5 10 6 59 98
5 0 0 0 0 0 0 0 0 3 4 16 0 0 3 5 6 17 39 86 90 92 80 100 100 68 83 60 9 9 5 5 5 21 8 28 52 31
0 0 0 0 0 0 0 0 0 0 1 5 63 70 4 10 46 100 56 99 98 74 19 82 53 100 97 82 63 5 5 84 93 48 8 9 5 10
0 0 0 0 4 5 3 0 0 0 0 5 5 27 18 45 100 100 100 100 100 74 56 51 5 5 5 5 42 43 8 70 36 13 80 100 92 10
13 77 20 3 2 0 2 1 0 0 0 0 2 20 8 88 90 98 100 100 100 86 37 68 5 5 5 6 31 85 65 74 30 5 5 5 5 17
100 100 54 5 5 0 0 0 0 0 0 0 2 22 45 91 100 100 100 100 100 100 100 67 90 94 72 25 52 22 15 9 40 47 45 10 40 79
5 8 97 86 100 100 76 0 0 0 0 0 0 3 6 26 34 100 100 100 100 100 100 100 82 100 94 28 100 100 100 87 78 64 10 28 96 90
32 44 100 90 5 9 44 91 85 9 0 0 0 0 0 3 0 97 100 100 100 95 100 100 100 100 100 100 100 100 100 90 93 25 20 5 27 55
100 100 72 58 16 14 63 61 99 21 9 5 3 0 0 0 3 18 42 95 100 100 100 100 99 100 94 100 100 100 100 100 100 94 38 86 100 93
42 35 99 100 96 84 90 96 99 82 27 5 5 51 93 30 5 35 96 100 100 100 100 100 100 100 100 100 100 100 100 100 100 100 100 100 100 100
86 56 18 45 23 95 100 100 100 67 51 96 43 77 80 100 100 100 100 100 100 100 100 100 100 100 100 100 100 100 100 100 100 100 100 100 100 100
99 57 4 1 66 99 96 99 88 97 94 39 98 100 100 100 100 100 100 100 100 100 100 100 100 100 100 100 100 100 100 100 100 100 100 100 100 100
100 100 94 91 100 100 100 92 100 100 100 100 100 100 100 100 100 100 100 100 100 100 100 100 100 100 100 100 100 100 100 100 100 100 100 100 100 100
100 100 99 99 100 100 74 100 100 100 100 100 100 100 98 100 100 100 100 100 100 100 100 100 100 100 100 100 100 100 100 100 100 100 100 100 100 100
100 100 100 100 100 100 70 100 100 100 100 100 100 100 100 100 100 100 100 100 100 100 100 100 100 100 100 100 100 100 100 100 100 100 100 100 100 100
100 100 100 100 100 100 100 100 100 100 100 100 100 100 100 100 100 100 100 100 100 100 100 100 100 100 100 100 100 100 100 100 100 100 100 100 100 100
100 100 100 100 100 100 100 100 100 100 100 100 100 100 100 100 100 100 100 100 100 100 100 100 100 100 100 100 100 100 100 100 100 100 100 100 100 100
100 100 100 100 100 100 100 100 100 100 100 100 100 100 100 100 100 100 100 100 100 100 100 100 100 100 100 100 100 100 100 100 100 100 100 100 100 100
100 100 100 100 100 100 100 100 100 100 100 100 100 100 100 100 100 100 100 100 100 100 100 100 100 99 99 100 100 100 100 100 100 100 100 100 100 93
100 100 100 100 100 100 100 100 100 100 100 100 100 100 100 100 100 100 100 100 93 88 98 100 97 100 100 100 94 70 49 97 72 70 83 89 98 71
100 100 100 100 100 100 90 100 100 100 100 100 100 99 100 100 81 48 75 100 100 84 42 88 92 69 65 95 88 100 98 97 97 100 93 100 100 100
48 64 96 37 58 90 98 59 93 100 89 98 99 100 100 100 89 96 94 100 100 100 100 100 100 100 100 100 100 100 100 100 100 100 100 100 100 100